Find Starlink 34798

NORAD ID: 65063 Int'l Des: 2025-165 Owner: SPXS Country: US Constellation: starlink operational
LEOCIRCULARRETROGRADESSO

リアルタイム位置

3D地球を読み込み中...

Starlink 34798について

説明を読み込み中...

次回通過

Passes for default location (London). Set your location on the main map for personalized predictions.

高度履歴

Loading altitude history...

軌道要素

1 65063U 25165H 26104.84062578 .00004528 00000-0 31773-3 0 9995
2 65063 97.6016 182.9195 0001191 207.1595 152.9570 15.05658708 40230
Epoch: Apr 14, 2026 • Age: 7 hours

現在のステータス

高度 551.1 km
速度 7.59 km/s
衛星直下点 10.03°N, 111.65°E
打ち上げ日 Jul 31, 2025
運用期間 0.7 years
タイプ internet

技術仕様

分類 Payload
質量 575.00 kg
乾燥質量 530.00 kg
総質量 575.00 kg
長さ 0.30 m
直径 4.10 m
スパン 29.00 m
形状 Box + pan
製造者 SPXS
バスタイプ Starlink V2MO
フェーズステータス In Orbit
所有者/国 SPXS/US

Most Searched